Regional Weather Roundup
Issued by NWS

Home | Current Version | Previous Version | Graphics & Text | Print | Product List | Glossary On
Versions: 1 2 3 4 5 6 7 8 9 10 11 12 13 14 15 16 17 18 19 20 21 22 23 24 25 26 27 28 29 30 31 32 33 34 35 36 37 38 39 40 41 42 43 44 45 46 47 48 49 50
000
ASUS43 KDMX 272306
RWRIA

WEATHER ROUNDUP FOR IOWA
NATIONAL WEATHER SERVICE DES MOINES IA
500 PM CST MON FEB 27 2017

NOTE: "FAIR" INDICATES FEW OR NO CLOUDS BELOW 12,000 FEET WITH NO
SIGNIFICANT WEATHER AND/OR OBSTRUCTIONS TO VISIBILITY.

* - THESE STATIONS ARE NOT NWS STATIONS...THUS NOT UNDER NWS
QUALITY CONTROL.  THEY ALSO DO NOT REPORT WEATHER SUCH
AS PRECIPITATION OR FOG.

IAZ001>003-012>014-020>022-031>034-043>046-280000-
   NORTHWEST IOWA

CITY           SKY/WX    TMP DP  RH WIND       PRES   REMARKS
CARROLL *      CLOUDY    45  39  81 SE10      29.80F
CHEROKEE *     SUNNY     39  33  80 SE8       29.78F WCI  33
DENISON *      SUNNY     46  32  57 SE7G14    29.76F
LE MARS *      SUNNY     43  32  65 SE8       29.78S
SHELDON *      CLOUDY    39  36  87 SE12      29.76F WCI  32
SIOUX CITY     SUNNY     44  32  62 E5        29.77F
SPENCER        CLOUDY    39  31  72 SE9       29.81F WCI  33
STORM LAKE *   SUNNY     39  32  75 SE14      29.79F WCI  31
$$

IAZ055>058-069>071-079>083-090>094-280000-
   SOUTHWEST IOWA

CITY           SKY/WX    TMP DP  RH WIND       PRES   REMARKS
ATLANTIC *     CLOUDY    52  23  32 SE13      29.79F
AUDUBON *      MOSUNNY   48  28  46 SE13      29.81F
CLARINDA *     CLOUDY    55  28  35 SE12G17   29.81F
COUNCIL BLFS * CLOUDY    52  27  37 S13       29.77S
CRESTON *      CLOUDY    52  25  35 SE15      29.82F
HARLAN  *      PTSUNNY   50  30  46 SE14G22   29.81F
LAMONI         PTSUNNY   55  26  32 SE12G18   29.82F
RED OAK *      CLOUDY    52  28  40 SE10      29.78F
SHENANDOAH *   CLOUDY    55  30  38 SE15G23   29.78S
$$

IAZ047>049-059>061-072>074-084-280000-
   CENTRAL IOWA

CITY           SKY/WX    TMP DP  RH WIND       PRES   REMARKS
AMES           CLOUDY    50  32  50 SE9       29.86F
ANKENY *       CLOUDY    54  27  35 SE13      29.87F
BOONE *        CLOUDY    46  37  71 SE10      29.84F
CHARITON *     CLOUDY    54  21  28 SE12      29.85F
DES MOINES     CLOUDY    54  24  31 SE13      29.86F
GRINNELL*      CLOUDY    51  28  40 SE9       29.90F
KNOXVILLE *    CLOUDY    54  21  28 SE12      29.86F
MARSHALLTOWN   CLOUDY    50  29  44 SE14      29.88F
NEWTON *       CLOUDY    52  30  43 SE10      29.87F
PELLA *        CLOUDY    54  23  30 SE9       29.90F
PERRY *          N/A     49  32  51 SE13      29.84S
$$

IAZ004>006-015-016-023>025-035-036-280000-
   NORTH CENTRAL IOWA

CITY           SKY/WX    TMP DP  RH WIND       PRES   REMARKS
ALGONA *       CLOUDY    39  32  75 SE10      29.85F WCI  32
CLARION *      CLOUDY    41  34  75 SE10      29.86F
ESTHERVILLE    PTSUNNY   35  30  82 SE10      29.82F WCI  27
FORT DODGE *   CLOUDY    37  30  75 E8        29.85F WCI  31
MASON CITY     CLOUDY    39  32  76 SE13      29.88F WCI  31
FOREST CITY *    N/A     37  32  81 SE8       29.87F WCI  31
WEBSTER CITY * CLOUDY    41  34  75 E10       29.83F
IOWA FALLS *     N/A     46  37  72 SE7       29.88F
$$

IAZ007>011-017>019-026>030-037>042-050>054-066-280000-
   NORTHEAST IOWA

CITY           SKY/WX    TMP DP  RH WIND       PRES   REMARKS
CEDAR RAPIDS   MOCLDY    52  28  39 SE7       29.93F
CHARLES CITY * CLOUDY    43  34  70 SE8       29.91F
CLINTON *      CLOUDY    52  34  50 S8        30.00F
DECORAH *      MOCLDY    45  32  61 SE5       29.94S
DUBUQUE        CLOUDY    46  34  62 S9        29.99F
MONTICELLO *   CLOUDY    50  36  57 SE7       29.97F
OELWEIN *      CLOUDY    46  34  61 S8        29.94F
WATERLOO       CLOUDY    50  30  46 SE9       29.92F
$$

IAZ064-065-067-068-078-280000-
   EAST CENTRAL IOWA

CITY           SKY/WX    TMP DP  RH WIND       PRES   REMARKS
DAVENPORT      CLOUDY    52  33  48 S8        29.99F
IOWA CITY      CLOUDY    54  30  40 SE9       29.96F
MUSCATINE *    CLOUDY    55  30  38 SE7       29.97F
QUAD CITIES    CLOUDY    54  31  41 S9        29.98F
$$

IAZ062-063-075>077-085>089-095>099-280000-
   SOUTHEAST IOWA

CITY           SKY/WX    TMP DP  RH WIND       PRES   REMARKS
BURLINGTON     MOCLDY    56  28  34 SE6       29.96F
FAIRFIELD *    CLOUDY    55  25  30 SE12      29.93S
FORT MADISON * MOCLDY    57  30  35 SE9       29.96F
KEOKUK *       CLOUDY    57  28  33 SE8       29.94F
CENTERVILLE *  PTSUNNY   55  25  30 CALM      29.89F
OTTUMWA        CLOUDY    55  21  26 SE9       29.91F
WASHINGTON *   CLOUDY    54  28  37 SE9G15    29.95F
$$

ABBREVIATIONS USED IN REMARKS
   TC - TEMPERATURES IN CELSIUS
  WCI - WIND CHILL INDEX
   HX - HEAT INDEX
  VSB - VISIBILITY
$$




USA.gov is the U.S. government's official web portal to all federal, state and local government web resources and services.